This demonstration page uses our WeatherBlox Daily Observations layout. Learn more.

41.55636, -103.73856

Hourly Observations for May 23, 2015

Temp ( °F °C ) Dew Point ( °F °C ) Humidity (%) Winds ( mph kmh ) Pressure ( in mb ) Visibility ( mi km ) Precip ( " mm )
12:53 am 00:53 Cloudy with Mist and Fog 46 8 45 7 93 93 SE 12 19 30.06 1018 6 9.656064 0 0
1:23 am 01:23 Cloudy with Mist and Fog 45 7 45 7 100 100 SE 12 19 30.06 1018 2.5 4.02336 0 0
1:41 am 01:41 Cloudy with Mist and Fog 46 8 45 7 93 93 SE 9 15 30.06 1018 3 4.828032 0 0
1:53 am 01:53 Cloudy with Mist and Fog 46 8 45 7 93 93 ESE 10 17 30.06 1018 4 6.437376 0 0
2:53 am 02:53 Cloudy with Mist and Fog 46 8 45 7 93 93 ESE 6 9 30.06 1018 6 9.656064 0 0
3:34 am 03:34 Cloudy with Mist and Fog 46 8 45 7 93 93 ESE 7 11 30.06 1018 2.5 4.02336 0 0
3:53 am 03:53 Cloudy with Mist and Fog 46 8 45 7 93 93 ESE 8 13 30.03 1017 1.5 2.414016 0 0
4:46 am 04:46 Mostly Cloudy with Mist and Fog 46 8 46 8 100 100 ESE 8 13 30.03 1017 0.75 1.207008 0 0
4:53 am 04:53 Mostly Cloudy with Mist and Fog 46 8 46 8 100 100 ESE 8 13 30.03 1017 1 1.609344 0 0
5:03 am 05:03 Mostly Cloudy with Fog 46 8 46 8 100 100 ESE 7 11 30.03 1017 0.5 0.804672 0 0
5:16 am 05:16 Cloudy with Mist and Fog 46 8 46 8 100 100 ESE 8 13 30.03 1017 1.25 2.01168 0 0
5:33 am 05:33 Mostly Cloudy with Mist and Fog 46 8 46 8 100 100 E 5 7 30.03 1017 0.75 1.207008 0 0
5:53 am 05:53 Mostly Cloudy with Mist and Fog 46 8 46 8 100 100 ESE 8 13 30.03 1017 0.75 1.207008 0 0
6:15 am 06:15 Cloudy with Mist and Fog 46 8 46 8 100 100 ESE 9 15 30.03 1017 1.25 2.01168 0 0
6:26 am 06:26 Cloudy with Mist and Fog 46 8 46 8 100 100 E 8 13 30.03 1017 2 3.218688 0 0
6:33 am 06:33 Cloudy with Mist and Fog 46 8 46 8 100 100 E 9 15 30.03 1017 1.25 2.01168 0 0
6:44 am 06:44 Cloudy with Mist and Fog 46 8 46 8 100 100 E 8 13 30.03 1017 0.75 1.207008 0 0
6:53 am 06:53 Cloudy with Mist and Fog 46 8 46 8 100 100 ESE 10 17 30.03 1017 0.75 1.207008 0 0
7:07 am 07:07 Cloudy with Mist and Fog 46 8 46 8 100 100 ESE 10 17 30.03 1017 2 3.218688 0 0
7:16 am 07:16 Cloudy with Mist and Fog 46 8 46 8 100 100 ESE 13 20 30.03 1017 4 6.437376 0 0
7:32 am 07:32 Cloudy with Mist and Fog 48 9 46 8 94 94 ESE 12 19 30 1016 2 3.218688 0 0
7:53 am 07:53 Cloudy with Mist and Fog 48 9 48 9 100 100 ESE 9 15 30 1016 3 4.828032 0 0
8:53 am 08:53 Cloudy 50 10 50 10 100 100 ESE 8 13 29.97 1015 10 16.09344 0 0
9:08 am 09:08 Cloudy 52 11 50 10 94 94 ESE 8 13 29.97 1015 10 16.09344 0 0
9:53 am 09:53 Cloudy 52 11 50 10 94 94 ESE 9 15 29.97 1015 10 16.09344 0 0
10:53 am 10:53 Cloudy with Mist and Fog 54 12 52 11 94 94 ESE 10 17 29.94 1014 4 6.437376 0 0
11:53 am 11:53 Cloudy 55 13 52 11 88 88 E 13 20 29.91 1013 10 16.09344 0 0
12:08 pm 12:08 Cloudy 59 15 52 11 77 77 E 8 13 29.88 1012 10 16.09344 0 0
12:32 pm 12:32 Cloudy 59 15 52 11 77 77 E 10 17 29.88 1012 10 16.09344 0 0
12:51 pm 12:51 Cloudy 57 14 52 11 82 82 E 12 19 29.85 1011 10 16.09344 0 0
12:53 pm 12:53 Cloudy 57 14 52 11 82 82 ESE 10 17 29.85 1011 10 16.09344 0 0
1:53 pm 13:53 Cloudy 57 14 54 12 88 88 ESE 16 26 29.85 1011 9 14.484096 0 0
2:34 pm 14:34 Cloudy 55 13 54 12 94 94 ESE 15 24 29.88 1012 10 16.09344 0 0
2:53 pm 14:53 Cloudy with Mist and Fog 55 13 54 12 94 94 E 15 24 29.88 1012 6 9.656064 0 0
3:03 pm 15:03 Cloudy 57 14 54 12 88 88 E 15 24 29.83 1010 10 16.09344 0 0
3:10 pm 15:10 Cloudy with Mist and Fog 55 13 54 12 94 94 ESE 16 26 29.85 1011 6 9.656064 0 0
3:26 pm 15:26 Cloudy 57 14 54 12 88 88 ESE 17 28 29.83 1010 10 16.09344 0 0
3:53 pm 15:53 Cloudy 57 14 54 12 88 88 ESE 15 24 29.83 1010 10 16.09344 0 0
4:53 pm 16:53 Cloudy with Light Rain 55 13 54 12 94 94 ESE 15 24 29.85 1011 6 9.656064 0.01 0.254
5:50 pm 17:50 Cloudy with Rain 55 13 48 9 77 77 SSE 14 22 29.85 1011 4 6.437376 0 0
5:53 pm 17:53 Cloudy with Light Rain 55 13 50 10 82 82 SSE 13 20 29.85 1011 5 8.04672 0.04 1.016
6:38 pm 18:38 Cloudy 55 13 54 12 94 94 ESE 14 22 29.85 1011 10 16.09344 0 0
6:45 pm 18:45 Cloudy 55 13 54 12 94 94 ESE 12 19 29.85 1011 10 16.09344 0.03 0.762
6:53 pm 18:53 Cloudy 55 13 54 12 94 94 SE 9 15 29.85 1011 10 16.09344 0.03 0.762
7:00 pm 19:00 Cloudy 55 13 54 12 94 94 SE 9 15 29.85 1011 10 16.09344 0 0
7:17 pm 19:17 Mostly Cloudy 55 13 54 12 94 94 ESE 6 9 29.85 1011 10 16.09344 0 0
7:30 pm 19:30 Mostly Cloudy 55 13 54 12 94 94 N 6 9 29.85 1011 10 16.09344 0 0
7:53 pm 19:53 Cloudy 55 13 54 12 94 94 ESE 6 9 29.85 1011 10 16.09344 0 0
8:04 pm 20:04 Cloudy with Light Rain 55 13 54 12 94 94 SSE 6 9 29.85 1011 9 14.484096 0 0
8:33 pm 20:33 Cloudy 55 13 54 12 94 94 undefined N/A 29.85 1011 10 16.09344 0.06 1.524
8:53 pm 20:53 Cloudy 55 13 54 12 94 94 SE 5 7 29.85 1011 9 14.484096 0.06 1.524
9:19 pm 21:19 Cloudy with Light Rain 55 13 54 12 94 94 E 14 22 29.85 1011 10 16.09344 0.001 0.001
9:53 pm 21:53 Cloudy with Light Rain 55 13 54 12 94 94 E 14 22 29.85 1011 10 16.09344 0.001 0.001
10:05 pm 22:05 Cloudy with Light Rain 55 13 54 12 94 94 E 15 24 29.85 1011 10 16.09344 0.001 0.001
10:32 pm 22:32 Cloudy with Light Rain 55 13 54 12 94 94 ESE 15 24 29.85 1011 10 16.09344 0 0
10:39 pm 22:39 Cloudy with Light Rain 54 12 54 12 100 100 ESE 16 26 29.85 1011 10 16.09344 0.01 0.254
10:53 pm 22:53 Cloudy 54 12 54 12 100 100 ESE 12 19 29.85 1011 9 14.484096 0.01 0.254
11:53 pm 23:53 Cloudy with Light Rain 54 12 54 12 100 100 ESE 12 19 29.85 1011 10 16.09344 0.001 0.001

Powered by AerisWeather